Time,TemperatureF,DewpointF,PressureIn,WindDirection,WindDirectionDegrees,WindSpeedMPH,WindSpeedGustMPH,Humidity,HourlyPrecipIn,Conditions,Clouds,dailyrainin,SoftwareType,DateUTC
2013-01-31 00:05:00,24.5,15.2,29.92,NNW,347,6.0,6.0,67,0.00,,,0.00,Custom v0.1,2013-01-31 06:05:00,
2013-01-31 00:10:00,24.4,15.4,29.92,NNW,347,0.0,0.0,68,0.00,,,0.00,Custom v0.1,2013-01-31 06:10:00,
2013-01-31 00:20:00,23.9,15.3,29.93,NNW,347,0.0,0.0,69,0.00,,,0.00,Custom v0.1,2013-01-31 06:20:00,
2013-01-31 00:25:00,23.8,15.2,29.93,NNW,347,0.0,0.0,69,0.00,,,0.00,Custom v0.1,2013-01-31 06:25:00,
2013-01-31 00:30:00,23.6,15.3,29.93,NNW,347,0.0,0.0,70,0.00,,,0.00,Custom v0.1,2013-01-31 06:30:00,
2013-01-31 00:35:00,23.6,15.3,29.92,NNW,347,0.0,0.0,70,0.00,,,0.00,Custom v0.1,2013-01-31 06:35:00,
2013-01-31 00:40:00,23.3,15.0,29.92,NNW,347,0.0,0.0,70,0.00,,,0.00,Custom v0.1,2013-01-31 06:40:00,
2013-01-31 00:45:00,23.2,15.2,29.92,NNW,347,0.0,0.0,71,0.00,,,0.00,Custom v0.1,2013-01-31 06:45:00,
2013-01-31 00:50:00,23.0,15.0,29.92,NNW,347,0.0,0.0,71,0.00,,,0.00,Custom v0.1,2013-01-31 06:50:00,
2013-01-31 00:55:00,22.9,15.3,29.92,NNW,347,0.0,0.0,72,0.00,,,0.00,Custom v0.1,2013-01-31 06:55:00,
2013-01-31 01:00:00,22.9,15.3,29.92,NNW,347,0.0,0.0,72,0.00,,,0.00,Custom v0.1,2013-01-31 07:00:00,
2013-01-31 01:05:00,22.7,15.1,29.92,NNW,347,0.0,0.0,72,0.00,,,0.00,Custom v0.1,2013-01-31 07:05:00,
2013-01-31 01:15:00,22.4,15.1,29.92,NNW,347,0.0,0.0,73,0.00,,,0.00,Custom v0.1,2013-01-31 07:15:00,
2013-01-31 01:20:00,22.2,14.9,29.93,NNW,347,0.0,0.0,73,0.00,,,0.00,Custom v0.1,2013-01-31 07:20:00,
2013-01-31 01:25:00,22.2,15.2,29.93,NNW,347,0.0,0.0,74,0.00,,,0.00,Custom v0.1,2013-01-31 07:25:00,
2013-01-31 01:30:00,22.2,15.2,29.93,NNW,347,0.0,0.0,74,0.00,,,0.00,Custom v0.1,2013-01-31 07:30:00,
2013-01-31 01:35:00,22.2,15.2,29.93,NNW,347,0.0,0.0,74,0.00,,,0.00,Custom v0.1,2013-01-31 07:35:00,
2013-01-31 01:40:00,22.2,15.5,29.93,NNW,347,0.0,0.0,75,0.00,,,0.00,Custom v0.1,2013-01-31 07:40:00,
2013-01-31 01:45:00,22.2,15.5,29.93,NNW,347,0.0,0.0,75,0.00,,,0.00,Custom v0.1,2013-01-31 07:45:00,
2013-01-31 01:50:00,22.2,15.5,29.93,NNW,347,0.0,0.0,75,0.00,,,0.00,Custom v0.1,2013-01-31 07:50:00,
2013-01-31 01:55:00,22.2,15.5,29.93,NNW,347,0.0,0.0,75,0.00,,,0.00,Custom v0.1,2013-01-31 07:55:00,
2013-01-31 02:00:00,22.2,15.8,29.93,NNW,347,0.0,0.0,76,0.00,,,0.00,Custom v0.1,2013-01-31 08:00:00,
2013-01-31 02:05:00,22.2,15.8,29.92,NNW,347,0.0,0.0,76,0.00,,,0.00,Custom v0.1,2013-01-31 08:05:00,
2013-01-31 02:10:00,22.4,16.0,29.92,NNW,347,0.0,0.0,76,0.00,,,0.00,Custom v0.1,2013-01-31 08:10:00,
2013-01-31 02:15:00,22.2,15.8,29.92,NNW,347,0.0,0.0,76,0.00,,,0.00,Custom v0.1,2013-01-31 08:15:00,
2013-01-31 02:20:00,22.2,15.8,29.92,NNW,347,0.0,0.0,76,0.00,,,0.00,Custom v0.1,2013-01-31 08:20:00,
2013-01-31 02:25:00,22.2,16.1,29.92,NNW,347,0.0,0.0,77,0.00,,,0.00,Custom v0.1,2013-01-31 08:25:00,
2013-01-31 02:30:00,22.2,16.1,29.92,NNW,347,0.0,0.0,77,0.00,,,0.00,Custom v0.1,2013-01-31 08:30:00,
2013-01-31 02:35:00,22.4,16.6,29.92,NNW,347,0.0,0.0,78,0.00,,,0.00,Custom v0.1,2013-01-31 08:35:00,
2013-01-31 02:40:00,22.4,16.9,29.92,NNW,347,0.0,0.0,79,0.00,,,0.00,Custom v0.1,2013-01-31 08:40:00,
2013-01-31 02:45:00,22.7,16.9,29.92,NNW,347,0.0,0.0,78,0.00,,,0.00,Custom v0.1,2013-01-31 08:45:00,
2013-01-31 02:50:00,22.9,17.1,29.92,NNW,347,0.0,0.0,78,0.00,,,0.00,Custom v0.1,2013-01-31 08:50:00,
2013-01-31 02:55:00,23.2,17.1,29.92,NNW,347,0.0,0.0,77,0.00,,,0.00,Custom v0.1,2013-01-31 08:55:00,
2013-01-31 03:00:00,23.3,17.2,29.92,NNW,347,0.0,0.0,77,0.00,,,0.00,Custom v0.1,2013-01-31 09:00:00,
2013-01-31 03:05:00,23.6,17.2,29.93,NNW,347,0.0,0.0,76,0.00,,,0.00,Custom v0.1,2013-01-31 09:05:00,
2013-01-31 03:10:00,23.8,17.4,29.93,NNW,347,0.0,0.0,76,0.00,,,0.00,Custom v0.1,2013-01-31 09:10:00,
2013-01-31 03:15:00,23.8,17.4,29.93,NNW,347,0.0,0.0,76,0.00,,,0.00,Custom v0.1,2013-01-31 09:15:00,
2013-01-31 03:20:00,23.9,17.5,29.92,NNW,347,0.0,0.0,76,0.00,,,0.00,Custom v0.1,2013-01-31 09:20:00,
2013-01-31 03:25:00,24.1,17.4,29.92,NNW,347,0.0,0.0,75,0.00,,,0.00,Custom v0.1,2013-01-31 09:25:00,
2013-01-31 03:30:00,24.1,17.4,29.92,NNW,347,0.0,0.0,75,0.00,,,0.00,Custom v0.1,2013-01-31 09:30:00,
2013-01-31 03:35:00,24.1,17.4,29.92,NNW,347,0.0,0.0,75,0.00,,,0.00,Custom v0.1,2013-01-31 09:35:00,
2013-01-31 03:40:00,24.1,17.0,29.92,NNW,347,0.0,0.0,74,0.00,,,0.00,Custom v0.1,2013-01-31 09:40:00,
2013-01-31 03:45:00,24.2,17.1,29.92,NNW,347,0.0,0.0,74,0.00,,,0.00,Custom v0.1,2013-01-31 09:45:00,
2013-01-31 03:50:00,24.2,17.5,29.92,NNW,347,0.0,0.0,75,0.00,,,0.00,Custom v0.1,2013-01-31 09:50:00,
2013-01-31 03:55:00,24.4,17.6,29.92,NNW,347,0.0,0.0,75,0.00,,,0.00,Custom v0.1,2013-01-31 09:55:00,
2013-01-31 04:00:00,24.4,17.3,29.92,NNW,347,6.0,6.0,74,0.00,,,0.00,Custom v0.1,2013-01-31 10:00:00,
2013-01-31 04:05:00,24.4,17.3,29.91,NNW,347,0.0,0.0,74,0.00,,,0.00,Custom v0.1,2013-01-31 10:05:00,
2013-01-31 04:10:00,24.4,17.3,29.91,NNW,347,0.0,0.0,74,0.00,,,0.00,Custom v0.1,2013-01-31 10:10:00,
2013-01-31 04:15:00,24.4,17.3,29.91,NNW,347,3.0,3.0,74,0.00,,,0.00,Custom v0.1,2013-01-31 10:15:00,
2013-01-31 04:20:00,24.5,17.4,29.92,NNW,347,0.0,0.0,74,0.00,,,0.00,Custom v0.1,2013-01-31 10:20:00,
2013-01-31 04:25:00,24.5,17.7,29.92,NNW,347,0.0,0.0,75,0.00,,,0.00,Custom v0.1,2013-01-31 10:25:00,
2013-01-31 04:30:00,24.4,17.6,29.92,NNW,347,0.0,0.0,75,0.00,,,0.00,Custom v0.1,2013-01-31 10:30:00,
2013-01-31 04:35:00,24.4,17.6,29.91,NNW,347,0.0,0.0,75,0.00,,,0.00,Custom v0.1,2013-01-31 10:35:00,
2013-01-31 04:40:00,24.4,17.9,29.91,NNW,347,0.0,0.0,76,0.00,,,0.00,Custom v0.1,2013-01-31 10:40:00,
2013-01-31 04:45:00,24.4,17.9,29.91,NNW,347,0.0,0.0,76,0.00,,,0.00,Custom v0.1,2013-01-31 10:45:00,
2013-01-31 04:50:00,24.4,17.9,29.90,NNW,347,0.0,0.0,76,0.00,,,0.00,Custom v0.1,2013-01-31 10:50:00,
2013-01-31 04:55:00,24.4,17.6,29.90,NNW,347,0.0,0.0,75,0.00,,,0.00,Custom v0.1,2013-01-31 10:55:00,
2013-01-31 05:00:00,24.5,17.7,29.90,NNW,347,0.0,0.0,75,0.00,,,0.00,Custom v0.1,2013-01-31 11:00:00,
2013-01-31 05:05:00,24.5,17.7,29.90,NNW,347,0.0,0.0,75,0.00,,,0.00,Custom v0.1,2013-01-31 11:05:00,
2013-01-31 05:10:00,24.5,17.7,29.90,NNW,347,0.0,0.0,75,0.00,,,0.00,Custom v0.1,2013-01-31 11:10:00,
2013-01-31 05:15:00,24.7,17.9,29.90,NNW,347,0.0,0.0,75,0.00,,,0.00,Custom v0.1,2013-01-31 11:15:00,
2013-01-31 05:20:00,24.7,18.2,29.91,NNW,347,0.0,0.0,76,0.00,,,0.00,Custom v0.1,2013-01-31 11:20:00,
2013-01-31 05:25:00,24.7,18.2,29.91,NNW,347,0.0,0.0,76,0.00,,,0.00,Custom v0.1,2013-01-31 11:25:00,
2013-01-31 05:30:00,24.8,18.3,29.91,NNW,347,0.0,0.0,76,0.00,,,0.00,Custom v0.1,2013-01-31 11:30:00,
2013-01-31 05:35:00,24.8,18.3,29.91,NNW,347,0.0,0.0,76,0.00,,,0.00,Custom v0.1,2013-01-31 11:35:00,
2013-01-31 05:40:00,24.7,18.2,29.91,NNW,347,0.0,0.0,76,0.00,,,0.00,Custom v0.1,2013-01-31 11:40:00,
2013-01-31 05:45:00,24.7,18.2,29.91,NNW,347,0.0,0.0,76,0.00,,,0.00,Custom v0.1,2013-01-31 11:45:00,
2013-01-31 05:50:00,24.5,18.0,29.91,NNW,347,0.0,0.0,76,0.00,,,0.00,Custom v0.1,2013-01-31 11:50:00,
2013-01-31 05:55:00,24.5,18.3,29.91,NNW,347,0.0,0.0,77,0.00,,,0.00,Custom v0.1,2013-01-31 11:55:00,
2013-01-31 06:05:00,24.4,18.5,29.92,NNW,347,0.0,0.0,78,0.00,,,0.00,Custom v0.1,2013-01-31 12:05:00,
2013-01-31 06:10:00,24.2,18.3,29.92,NNW,347,0.0,0.0,78,0.00,,,0.00,Custom v0.1,2013-01-31 12:10:00,
2013-01-31 06:15:00,24.2,18.3,29.92,NNW,347,0.0,0.0,78,0.00,,,0.00,Custom v0.1,2013-01-31 12:15:00,
2013-01-31 06:20:00,24.2,18.6,29.92,NNW,347,0.0,0.0,79,0.00,,,0.00,Custom v0.1,2013-01-31 12:20:00,
2013-01-31 06:25:00,24.2,18.6,29.92,NNW,347,0.0,0.0,79,0.00,,,0.00,Custom v0.1,2013-01-31 12:25:00,
2013-01-31 06:30:00,24.2,18.9,29.92,NNW,347,0.0,0.0,80,0.00,,,0.00,Custom v0.1,2013-01-31 12:30:00,
2013-01-31 06:35:00,24.2,18.9,29.91,NNW,347,0.0,0.0,80,0.00,,,0.00,Custom v0.1,2013-01-31 12:35:00,
2013-01-31 06:40:00,24.2,18.9,29.91,NNW,347,0.0,0.0,80,0.00,,,0.00,Custom v0.1,2013-01-31 12:40:00,
2013-01-31 06:45:00,24.2,18.9,29.91,NNW,347,0.0,0.0,80,0.00,,,0.00,Custom v0.1,2013-01-31 12:45:00,
2013-01-31 06:50:00,24.4,19.1,29.93,NNW,347,0.0,0.0,80,0.00,,,0.00,Custom v0.1,2013-01-31 12:50:00,
2013-01-31 06:55:00,24.2,19.2,29.93,NNW,347,0.0,0.0,81,0.00,,,0.00,Custom v0.1,2013-01-31 12:55:00,
2013-01-31 07:00:00,24.5,19.5,29.93,NNW,347,0.0,0.0,81,0.00,,,0.00,Custom v0.1,2013-01-31 13:00:00,
2013-01-31 07:05:00,24.5,19.2,29.95,NNW,347,0.0,0.0,80,0.00,,,0.00,Custom v0.1,2013-01-31 13:05:00,
2013-01-31 07:10:00,24.7,19.4,29.95,NNW,347,0.0,0.0,80,0.00,,,0.00,Custom v0.1,2013-01-31 13:10:00,
2013-01-31 07:15:00,24.8,19.5,29.95,NNW,347,0.0,0.0,80,0.00,,,0.00,Custom v0.1,2013-01-31 13:15:00,
2013-01-31 07:20:00,24.8,19.5,29.96,NNW,347,0.0,0.0,80,0.00,,,0.00,Custom v0.1,2013-01-31 13:20:00,
2013-01-31 07:25:00,24.8,19.5,29.96,NNW,347,0.0,0.0,80,0.00,,,0.00,Custom v0.1,2013-01-31 13:25:00,
2013-01-31 07:30:00,25.0,19.7,29.96,NNW,347,0.0,0.0,80,0.00,,,0.00,Custom v0.1,2013-01-31 13:30:00,
2013-01-31 07:35:00,25.0,19.7,29.97,NNW,347,0.0,0.0,80,0.00,,,0.00,Custom v0.1,2013-01-31 13:35:00,
2013-01-31 07:40:00,24.8,18.9,29.97,NNW,347,0.0,0.0,78,0.00,,,0.00,Custom v0.1,2013-01-31 13:40:00,
2013-01-31 07:45:00,24.8,18.9,29.97,NNW,347,0.0,0.0,78,0.00,,,0.00,Custom v0.1,2013-01-31 13:45:00,
2013-01-31 07:50:00,24.8,18.9,29.98,NNW,347,0.0,0.0,78,0.00,,,0.00,Custom v0.1,2013-01-31 13:50:00,
2013-01-31 07:55:00,24.7,18.5,29.98,NNW,347,0.0,0.0,77,0.00,,,0.00,Custom v0.1,2013-01-31 13:55:00,
2013-01-31 08:00:00,24.7,18.5,29.98,NNW,347,0.0,0.0,77,0.00,,,0.00,Custom v0.1,2013-01-31 14:00:00,
2013-01-31 08:05:00,24.7,18.5,29.98,NNW,347,0.0,0.0,77,0.00,,,0.00,Custom v0.1,2013-01-31 14:05:00,
2013-01-31 08:10:00,24.7,18.2,29.98,NNW,347,6.0,6.0,76,0.00,,,0.00,Custom v0.1,2013-01-31 14:10:00,
2013-01-31 08:15:00,24.7,17.9,29.98,NNW,347,0.0,0.0,75,0.00,,,0.00,Custom v0.1,2013-01-31 14:15:00,
2013-01-31 08:20:00,24.5,17.4,30.00,NNW,347,5.0,5.0,74,0.00,,,0.00,Custom v0.1,2013-01-31 14:20:00,
2013-01-31 08:25:00,24.4,17.3,30.00,NNW,347,0.0,0.0,74,0.00,,,0.00,Custom v0.1,2013-01-31 14:25:00,
2013-01-31 08:30:00,24.4,17.3,30.00,NNW,347,0.0,0.0,74,0.00,,,0.00,Custom v0.1,2013-01-31 14:30:00,
2013-01-31 08:35:00,24.5,16.8,30.01,NNW,347,6.0,6.0,72,0.00,,,0.00,Custom v0.1,2013-01-31 14:35:00,
2013-01-31 08:40:00,24.5,15.8,30.01,NNW,347,0.0,0.0,69,0.00,,,0.00,Custom v0.1,2013-01-31 14:40:00,
2013-01-31 08:45:00,24.8,15.8,30.01,NNW,347,0.0,0.0,68,0.00,,,0.00,Custom v0.1,2013-01-31 14:45:00,
2013-01-31 08:50:00,25.1,15.7,30.01,NNW,347,0.0,0.0,67,0.00,,,0.00,Custom v0.1,2013-01-31 14:50:00,
2013-01-31 08:55:00,25.1,15.7,30.01,NNW,347,0.0,0.0,67,0.00,,,0.00,Custom v0.1,2013-01-31 14:55:00,
2013-01-31 09:00:00,25.3,15.9,30.01,NNW,347,0.0,0.0,67,0.00,,,0.00,Custom v0.1,2013-01-31 15:00:00,
2013-01-31 09:05:00,25.6,15.9,30.01,NNW,347,0.0,0.0,66,0.00,,,0.00,Custom v0.1,2013-01-31 15:05:00,
2013-01-31 09:10:00,25.6,15.2,30.01,NNW,347,3.0,4.0,64,0.00,,,0.00,Custom v0.1,2013-01-31 15:10:00,
2013-01-31 09:15:00,25.7,15.6,30.01,NNW,347,5.0,5.0,65,0.00,,,0.00,Custom v0.1,2013-01-31 15:15:00,
2013-01-31 09:20:00,25.7,16.0,30.02,NNW,347,0.0,0.0,66,0.00,,,0.00,Custom v0.1,2013-01-31 15:20:00,
2013-01-31 09:25:00,25.7,16.0,30.02,NNW,347,6.0,10.0,66,0.00,,,0.00,Custom v0.1,2013-01-31 15:25:00,
2013-01-31 09:30:00,26.0,16.3,30.02,NNW,347,3.0,3.0,66,0.00,,,0.00,Custom v0.1,2013-01-31 15:30:00,
2013-01-31 09:35:00,26.1,15.6,30.02,NNW,347,4.0,4.0,64,0.00,,,0.00,Custom v0.1,2013-01-31 15:35:00,
2013-01-31 09:40:00,25.8,15.0,30.02,NNW,347,11.0,12.0,63,0.00,,,0.00,Custom v0.1,2013-01-31 15:40:00,
2013-01-31 09:45:00,25.7,14.9,30.02,NNW,347,11.0,12.0,63,0.00,,,0.00,Custom v0.1,2013-01-31 15:45:00,
2013-01-31 09:50:00,26.0,15.5,30.04,NNW,347,6.0,6.0,64,0.00,,,0.00,Custom v0.1,2013-01-31 15:50:00,
2013-01-31 09:55:00,26.3,15.5,30.04,NNW,347,9.0,9.0,63,0.00,,,0.00,Custom v0.1,2013-01-31 15:55:00,
2013-01-31 10:00:00,26.0,14.4,30.04,NNW,347,9.0,9.0,61,0.00,,,0.00,Custom v0.1,2013-01-31 16:00:00,
2013-01-31 10:10:00,26.0,15.2,30.04,NNW,347,0.0,5.0,63,0.00,,,0.00,Custom v0.1,2013-01-31 16:10:00,
2013-01-31 10:15:00,25.8,15.4,30.04,NNW,347,11.0,11.0,64,0.00,,,0.00,Custom v0.1,2013-01-31 16:15:00,
2013-01-31 10:20:00,25.7,14.1,30.05,NNW,347,6.0,7.0,61,0.00,,,0.00,Custom v0.1,2013-01-31 16:20:00,
2013-01-31 10:25:00,26.0,14.4,30.05,NNW,347,2.0,6.0,61,0.00,,,0.00,Custom v0.1,2013-01-31 16:25:00,
2013-01-31 10:30:00,25.7,13.4,30.05,NNW,347,9.0,9.0,59,0.00,,,0.00,Custom v0.1,2013-01-31 16:30:00,
2013-01-31 10:35:00,25.7,14.1,30.07,NNW,347,5.0,7.0,61,0.00,,,0.00,Custom v0.1,2013-01-31 16:35:00,
2013-01-31 10:40:00,25.6,14.8,30.07,NNW,347,4.0,4.0,63,0.00,,,0.00,Custom v0.1,2013-01-31 16:40:00,
2013-01-31 10:45:00,26.0,16.3,30.07,NNW,347,0.0,0.0,66,0.00,,,0.00,Custom v0.1,2013-01-31 16:45:00,
2013-01-31 10:50:00,26.0,16.3,30.07,NNW,347,0.0,0.0,66,0.00,,,0.00,Custom v0.1,2013-01-31 16:50:00,
2013-01-31 10:55:00,26.0,15.2,30.07,NNW,347,6.0,9.0,63,0.00,,,0.00,Custom v0.1,2013-01-31 16:55:00,
2013-01-31 11:00:00,26.0,15.2,30.07,NNW,347,2.0,5.0,63,0.00,,,0.00,Custom v0.1,2013-01-31 17:00:00,
2013-01-31 11:05:00,25.6,15.2,30.07,NNW,347,0.0,0.0,64,0.00,,,0.00,Custom v0.1,2013-01-31 17:05:00,
2013-01-31 11:10:00,25.0,13.5,30.07,NNW,347,0.0,0.0,61,0.00,,,0.00,Custom v0.1,2013-01-31 17:10:00,
2013-01-31 11:15:00,24.8,12.9,30.07,NNW,347,7.0,10.0,60,0.00,,,0.00,Custom v0.1,2013-01-31 17:15:00,
2013-01-31 11:20:00,24.7,12.8,30.08,NNW,347,11.0,11.0,60,0.00,,,0.00,Custom v0.1,2013-01-31 17:20:00,
2013-01-31 11:25:00,24.4,12.9,30.08,NNW,347,9.0,9.0,61,0.00,,,0.00,Custom v0.1,2013-01-31 17:25:00,
2013-01-31 11:30:00,24.2,12.3,30.08,NNW,347,16.0,16.0,60,0.00,,,0.00,Custom v0.1,2013-01-31 17:30:00,
2013-01-31 11:35:00,23.9,11.7,30.09,NNW,347,6.0,7.0,59,0.00,,,0.00,Custom v0.1,2013-01-31 17:35:00,
2013-01-31 11:40:00,24.2,12.0,30.09,NNW,347,4.0,7.0,59,0.00,,,0.00,Custom v0.1,2013-01-31 17:40:00,
2013-01-31 11:45:00,24.1,11.1,30.09,NNW,347,8.0,8.0,57,0.00,,,0.00,Custom v0.1,2013-01-31 17:45:00,
2013-01-31 11:50:00,23.8,10.8,30.09,NNW,347,9.0,9.0,57,0.00,,,0.00,Custom v0.1,2013-01-31 17:50:00,
2013-01-31 11:55:00,23.9,11.3,30.09,NNW,347,3.0,7.0,58,0.00,,,0.00,Custom v0.1,2013-01-31 17:55:00,
2013-01-31 12:00:00,23.5,10.9,30.09,NNW,347,6.0,7.0,58,0.00,,,0.00,Custom v0.1,2013-01-31 18:00:00,
2013-01-31 12:05:00,23.6,11.8,30.10,NNW,347,5.0,7.0,60,0.00,,,0.00,Custom v0.1,2013-01-31 18:05:00,
2013-01-31 12:10:00,23.6,11.8,30.10,NNW,347,9.0,9.0,60,0.00,,,0.00,Custom v0.1,2013-01-31 18:10:00,
2013-01-31 12:15:00,23.3,10.3,30.10,NNW,347,10.0,10.0,57,0.00,,,0.00,Custom v0.1,2013-01-31 18:15:00,
2013-01-31 12:20:00,23.2,10.6,30.11,NNW,347,10.0,10.0,58,0.00,,,0.00,Custom v0.1,2013-01-31 18:20:00,
2013-01-31 12:25:00,22.9,10.3,30.11,NNW,347,2.0,7.0,58,0.00,,,0.00,Custom v0.1,2013-01-31 18:25:00,
2013-01-31 12:30:00,23.2,11.4,30.11,NNW,347,6.0,7.0,60,0.00,,,0.00,Custom v0.1,2013-01-31 18:30:00,
2013-01-31 12:35:00,23.6,11.8,30.12,NNW,347,7.0,7.0,60,0.00,,,0.00,Custom v0.1,2013-01-31 18:35:00,
2013-01-31 12:40:00,23.9,12.1,30.12,NNW,347,11.0,11.0,60,0.00,,,0.00,Custom v0.1,2013-01-31 18:40:00,
2013-01-31 12:45:00,22.9,8.7,30.12,NNW,347,14.0,14.0,54,0.00,,,0.00,Custom v0.1,2013-01-31 18:45:00,
2013-01-31 12:50:00,22.1,7.1,30.13,NNW,347,13.0,13.0,52,0.00,,,0.00,Custom v0.1,2013-01-31 18:50:00,
2013-01-31 12:55:00,21.8,7.3,30.13,NNW,347,21.0,21.0,53,0.00,,,0.00,Custom v0.1,2013-01-31 18:55:00,
2013-01-31 13:00:00,21.4,6.9,30.13,NNW,347,10.0,10.0,53,0.00,,,0.00,Custom v0.1,2013-01-31 19:00:00,
2013-01-31 13:05:00,21.4,7.7,30.14,NNW,347,3.0,7.0,55,0.00,,,0.00,Custom v0.1,2013-01-31 19:05:00,
2013-01-31 13:10:00,21.4,7.7,30.14,NNW,347,12.0,12.0,55,0.00,,,0.00,Custom v0.1,2013-01-31 19:10:00,
2013-01-31 13:15:00,21.3,6.8,30.14,NNW,347,8.0,8.0,53,0.00,,,0.00,Custom v0.1,2013-01-31 19:15:00,
2013-01-31 13:20:00,21.1,6.6,30.15,NNW,347,19.0,19.0,53,0.00,,,0.00,Custom v0.1,2013-01-31 19:20:00,
2013-01-31 13:25:00,20.8,5.0,30.15,NNW,347,8.0,8.0,50,0.00,,,0.00,Custom v0.1,2013-01-31 19:25:00,
2013-01-31 13:30:00,20.8,4.1,30.15,NNW,347,12.0,12.0,48,0.00,,,0.00,Custom v0.1,2013-01-31 19:30:00,
2013-01-31 13:35:00,21.0,4.3,30.16,NNW,347,7.0,7.0,48,0.00,,,0.00,Custom v0.1,2013-01-31 19:35:00,
2013-01-31 13:40:00,21.3,4.6,30.16,NNW,347,6.0,7.0,48,0.00,,,0.00,Custom v0.1,2013-01-31 19:40:00,
2013-01-31 13:50:00,20.8,4.1,30.16,NNW,347,11.0,11.0,48,0.00,,,0.00,Custom v0.1,2013-01-31 19:50:00,
2013-01-31 13:55:00,21.3,5.9,30.16,NNW,347,6.0,7.0,51,0.00,,,0.00,Custom v0.1,2013-01-31 19:55:00,
2013-01-31 14:00:00,21.8,6.8,30.16,NNW,347,14.0,14.0,52,0.00,,,0.00,Custom v0.1,2013-01-31 20:00:00,
2013-01-31 14:05:00,22.4,8.7,30.16,NNW,347,5.0,7.0,55,0.00,,,0.00,Custom v0.1,2013-01-31 20:05:00,
2013-01-31 14:10:00,22.2,5.8,30.16,NNW,347,2.0,7.0,49,0.00,,,0.00,Custom v0.1,2013-01-31 20:10:00,
2013-01-31 14:15:00,22.2,6.3,30.16,NNW,347,14.0,14.0,50,0.00,,,0.00,Custom v0.1,2013-01-31 20:15:00,
2013-01-31 14:20:00,21.6,4.8,30.17,NNW,347,13.0,13.0,48,0.00,,,0.00,Custom v0.1,2013-01-31 20:20:00,
2013-01-31 14:25:00,20.8,5.0,30.17,NNW,347,7.0,10.0,50,0.00,,,0.00,Custom v0.1,2013-01-31 20:25:00,
2013-01-31 14:30:00,20.8,4.6,30.17,NNW,347,8.0,9.0,49,0.00,,,0.00,Custom v0.1,2013-01-31 20:30:00,
2013-01-31 14:35:00,21.3,4.6,30.18,NNW,347,13.0,13.0,48,0.00,,,0.00,Custom v0.1,2013-01-31 20:35:00,
2013-01-31 14:40:00,21.1,4.4,30.18,NNW,347,13.0,13.0,48,0.00,,,0.00,Custom v0.1,2013-01-31 20:40:00,
2013-01-31 14:45:00,21.3,5.0,30.18,NNW,347,13.0,17.0,49,0.00,,,0.00,Custom v0.1,2013-01-31 20:45:00,
2013-01-31 14:50:00,21.3,5.5,30.19,NNW,347,16.0,16.0,50,0.00,,,0.00,Custom v0.1,2013-01-31 20:50:00,
2013-01-31 14:55:00,21.4,6.0,30.19,NNW,347,9.0,13.0,51,0.00,,,0.00,Custom v0.1,2013-01-31 20:55:00,
2013-01-31 15:00:00,21.1,5.7,30.19,NNW,347,7.0,11.0,51,0.00,,,0.00,Custom v0.1,2013-01-31 21:00:00,
2013-01-31 15:05:00,21.0,5.6,30.20,NNW,348,7.0,7.0,51,0.00,,,0.00,Custom v0.1,2013-01-31 21:05:00,
2013-01-31 15:10:00,21.0,6.9,30.20,NNW,347,7.0,17.0,54,0.00,,,0.00,Custom v0.1,2013-01-31 21:10:00,
2013-01-31 15:20:00,20.6,7.4,30.20,NNW,347,5.0,5.0,56,0.00,,,0.00,Custom v0.1,2013-01-31 21:20:00,
2013-01-31 15:25:00,20.0,5.6,30.20,NNW,347,1.0,17.0,53,0.00,,,0.00,Custom v0.1,2013-01-31 21:25:00,
2013-01-31 15:30:00,19.7,6.1,30.20,NNW,347,5.0,5.0,55,0.00,,,0.00,Custom v0.1,2013-01-31 21:30:00,
2013-01-31 15:35:00,19.7,6.1,30.21,NNW,347,13.0,13.0,55,0.00,,,0.00,Custom v0.1,2013-01-31 21:35:00,
2013-01-31 15:40:00,19.4,6.6,30.21,NNW,347,0.0,4.0,57,0.00,,,0.00,Custom v0.1,2013-01-31 21:40:00,
2013-01-31 15:45:00,19.1,6.0,30.21,NNW,347,10.0,10.0,56,0.00,,,0.00,Custom v0.1,2013-01-31 21:45:00,
2013-01-31 15:50:00,18.4,6.5,30.22,NNW,347,17.0,17.0,59,0.00,,,0.00,Custom v0.1,2013-01-31 21:50:00,
2013-01-31 15:55:00,18.3,7.9,30.22,NNW,347,11.0,11.0,63,0.00,,,0.00,Custom v0.1,2013-01-31 21:55:00,
2013-01-31 16:00:00,17.8,7.7,30.22,NNW,347,4.0,4.0,64,0.00,,,0.00,Custom v0.1,2013-01-31 22:00:00,
2013-01-31 16:05:00,17.3,5.8,30.23,NNW,347,7.0,7.0,60,0.00,,,0.00,Custom v0.1,2013-01-31 22:05:00,
2013-01-31 16:10:00,17.0,5.2,30.23,NNW,347,7.0,11.0,59,0.00,,,0.00,Custom v0.1,2013-01-31 22:10:00,
2013-01-31 16:15:00,16.4,3.0,30.23,NNW,347,6.0,6.0,55,0.00,,,0.00,Custom v0.1,2013-01-31 22:15:00,
2013-01-31 16:20:00,16.1,1.9,30.24,NNW,347,6.0,6.0,53,0.00,,,0.00,Custom v0.1,2013-01-31 22:20:00,
2013-01-31 16:25:00,15.4,1.3,30.24,NNW,347,7.0,7.0,53,0.00,,,0.00,Custom v0.1,2013-01-31 22:25:00,
2013-01-31 16:30:00,15.4,2.1,30.24,NNW,347,3.0,3.0,55,0.00,,,0.00,Custom v0.1,2013-01-31 22:30:00,
2013-01-31 16:35:00,15.2,1.1,30.25,NNW,347,6.0,6.0,53,0.00,,,0.00,Custom v0.1,2013-01-31 22:35:00,
2013-01-31 16:40:00,15.4,1.3,30.25,NNW,347,7.0,7.0,53,0.00,,,0.00,Custom v0.1,2013-01-31 22:40:00,
2013-01-31 16:45:00,15.6,1.9,30.25,NNW,347,10.0,10.0,54,0.00,,,0.00,Custom v0.1,2013-01-31 22:45:00,
2013-01-31 16:50:00,15.7,2.0,30.26,NNW,347,1.0,1.0,54,0.00,,,0.00,Custom v0.1,2013-01-31 22:50:00,
2013-01-31 16:55:00,15.7,1.6,30.26,NNW,347,7.0,7.0,53,0.00,,,0.00,Custom v0.1,2013-01-31 22:55:00,
2013-01-31 17:00:00,15.4,1.7,30.26,NNW,347,0.0,0.0,54,0.00,,,0.00,Custom v0.1,2013-01-31 23:00:00,
2013-01-31 17:05:00,15.4,2.1,30.27,NNW,347,1.0,1.0,55,0.00,,,0.00,Custom v0.1,2013-01-31 23:05:00,
2013-01-31 17:10:00,15.2,1.9,30.27,NNW,347,1.0,1.0,55,0.00,,,0.00,Custom v0.1,2013-01-31 23:10:00,
2013-01-31 17:15:00,15.2,2.3,30.27,NNW,347,0.0,0.0,56,0.00,,,0.00,Custom v0.1,2013-01-31 23:15:00,
2013-01-31 17:20:00,15.1,2.2,30.27,NNW,347,0.0,0.0,56,0.00,,,0.00,Custom v0.1,2013-01-31 23:20:00,
2013-01-31 17:25:00,14.8,2.7,30.27,NNW,347,3.0,3.0,58,0.00,,,0.00,Custom v0.1,2013-01-31 23:25:00,
2013-01-31 17:30:00,14.8,3.1,30.27,NNW,347,11.0,11.0,59,0.00,,,0.00,Custom v0.1,2013-01-31 23:30:00,
2013-01-31 17:35:00,14.6,2.9,30.28,NNW,347,6.0,6.0,59,0.00,,,0.00,Custom v0.1,2013-01-31 23:35:00,
2013-01-31 17:40:00,14.4,1.9,30.28,NNW,347,10.0,10.0,57,0.00,,,0.00,Custom v0.1,2013-01-31 23:40:00,
2013-01-31 17:45:00,14.3,1.5,30.28,NNW,347,10.0,10.0,56,0.00,,,0.00,Custom v0.1,2013-01-31 23:45:00,
2013-01-31 17:50:00,14.1,2.0,30.29,NNW,347,0.0,0.0,58,0.00,,,0.00,Custom v0.1,2013-01-31 23:50:00,
2013-01-31 17:55:00,14.0,1.9,30.29,NNW,347,8.0,8.0,58,0.00,,,0.00,Custom v0.1,2013-01-31 23:55:00,
2013-01-31 18:00:00,13.8,1.8,30.29,NNW,347,6.0,6.0,58,0.00,,,0.00,Custom v0.1,2013-02-01 00:00:00,
2013-01-31 18:05:00,13.6,1.9,30.31,NNW,347,0.0,0.0,59,0.00,,,0.00,Custom v0.1,2013-02-01 00:05:00,
2013-01-31 18:15:00,13.5,1.5,30.31,NNW,347,2.0,2.0,58,0.00,,,0.00,Custom v0.1,2013-02-01 00:15:00,
2013-01-31 18:20:00,13.3,1.7,30.31,NNW,347,0.0,0.0,59,0.00,,,0.00,Custom v0.1,2013-02-01 00:20:00,
2013-01-31 18:25:00,13.1,1.8,30.31,NNW,347,0.0,0.0,60,0.00,,,0.00,Custom v0.1,2013-02-01 00:25:00,
2013-01-31 18:30:00,12.9,1.3,30.31,NNW,347,10.0,10.0,59,0.00,,,0.00,Custom v0.1,2013-02-01 00:30:00,
2013-01-31 18:35:00,12.9,1.3,30.32,NNW,347,2.0,2.0,59,0.00,,,0.00,Custom v0.1,2013-02-01 00:35:00,
2013-01-31 18:45:00,12.8,0.4,30.32,NNW,347,5.0,5.0,57,0.00,,,0.00,Custom v0.1,2013-02-01 00:45:00,
2013-01-31 18:50:00,12.8,0.4,30.33,NNW,347,7.0,7.0,57,0.00,,,0.00,Custom v0.1,2013-02-01 00:50:00,
2013-01-31 18:55:00,12.6,0.2,30.33,NNW,347,0.0,0.0,57,0.00,,,0.00,Custom v0.1,2013-02-01 00:55:00,
2013-01-31 19:00:00,12.6,-0.5,30.33,NNW,347,2.0,2.0,55,0.00,,,0.00,Custom v0.1,2013-02-01 01:00:00,
2013-01-31 19:05:00,12.4,-0.7,30.34,NNW,347,0.0,0.0,55,0.00,,,0.00,Custom v0.1,2013-02-01 01:05:00,
2013-01-31 19:10:00,12.3,-0.4,30.34,NNW,347,0.0,0.0,56,0.00,,,0.00,Custom v0.1,2013-02-01 01:10:00,
2013-01-31 19:15:00,12.3,-0.4,30.34,NNW,347,5.0,5.0,56,0.00,,,0.00,Custom v0.1,2013-02-01 01:15:00,
2013-01-31 19:20:00,12.1,-0.2,30.35,NNW,347,2.0,5.0,57,0.00,,,0.00,Custom v0.1,2013-02-01 01:20:00,
2013-01-31 19:25:00,12.1,-0.6,30.35,NNW,347,3.0,3.0,56,0.00,,,0.00,Custom v0.1,2013-02-01 01:25:00,
2013-01-31 19:30:00,11.9,-0.4,30.35,NNW,347,1.0,4.0,57,0.00,,,0.00,Custom v0.1,2013-02-01 01:30:00,
2013-01-31 19:35:00,11.7,-0.6,30.36,NNW,347,2.0,2.0,57,0.00,,,0.00,Custom v0.1,2013-02-01 01:35:00,
2013-01-31 19:40:00,11.7,-0.2,30.36,NNW,347,0.0,0.0,58,0.00,,,0.00,Custom v0.1,2013-02-01 01:40:00,
2013-01-31 19:45:00,11.6,-0.3,30.36,NNW,347,0.0,0.0,58,0.00,,,0.00,Custom v0.1,2013-02-01 01:45:00,
2013-01-31 19:50:00,11.4,-0.1,30.36,NNW,347,0.0,0.0,59,0.00,,,0.00,Custom v0.1,2013-02-01 01:50:00,
2013-01-31 19:55:00,11.4,0.2,30.36,NNW,347,0.0,0.0,60,0.00,,,0.00,Custom v0.1,2013-02-01 01:55:00,
2013-01-31 20:00:00,11.4,0.6,30.36,NNW,347,0.0,0.0,61,0.00,,,0.00,Custom v0.1,2013-02-01 02:00:00,
2013-01-31 20:05:00,11.2,0.4,30.37,NNW,347,0.0,0.0,61,0.00,,,0.00,Custom v0.1,2013-02-01 02:05:00,
2013-01-31 20:15:00,11.1,0.7,30.37,NNW,347,0.0,0.0,62,0.00,,,0.00,Custom v0.1,2013-02-01 02:15:00,
2013-01-31 20:25:00,10.9,1.2,30.37,NNW,347,0.0,0.0,64,0.00,,,0.00,Custom v0.1,2013-02-01 02:25:00,
2013-01-31 20:30:00,10.9,1.2,30.37,NNW,347,0.0,0.0,64,0.00,,,0.00,Custom v0.1,2013-02-01 02:30:00,
2013-01-31 20:35:00,10.7,1.0,30.38,NNW,347,0.0,0.0,64,0.00,,,0.00,Custom v0.1,2013-02-01 02:35:00,
2013-01-31 20:45:00,10.7,1.3,30.38,NNW,347,0.0,0.0,65,0.00,,,0.00,Custom v0.1,2013-02-01 02:45:00,
2013-01-31 20:50:00,10.7,1.0,30.39,NNW,347,0.0,0.0,64,0.00,,,0.00,Custom v0.1,2013-02-01 02:50:00,
2013-01-31 20:55:00,10.7,1.0,30.39,NNW,347,0.0,0.0,64,0.00,,,0.00,Custom v0.1,2013-02-01 02:55:00,
2013-01-31 21:00:00,10.7,0.3,30.39,NNW,347,0.0,0.0,62,0.00,,,0.00,Custom v0.1,2013-02-01 03:00:00,
2013-01-31 21:05:00,10.7,0.6,30.40,NNW,347,0.0,0.0,63,0.00,,,0.00,Custom v0.1,2013-02-01 03:05:00,
2013-01-31 21:15:00,10.7,0.3,30.40,NNW,347,0.0,0.0,62,0.00,,,0.00,Custom v0.1,2013-02-01 03:15:00,
2013-01-31 21:20:00,10.5,0.4,30.41,NNW,347,0.0,0.0,63,0.00,,,0.00,Custom v0.1,2013-02-01 03:20:00,
2013-01-31 21:25:00,10.4,0.3,30.41,NNW,347,0.0,0.0,63,0.00,,,0.00,Custom v0.1,2013-02-01 03:25:00,
2013-01-31 21:35:00,10.0,-0.4,30.42,NNW,347,0.0,0.0,62,0.00,,,0.00,Custom v0.1,2013-02-01 03:35:00,
2013-01-31 21:45:00,9.9,0.2,30.42,NNW,347,0.0,0.0,64,0.00,,,0.00,Custom v0.1,2013-02-01 03:45:00,
2013-01-31 21:50:00,10.0,0.3,30.42,NNW,347,0.0,0.0,64,0.00,,,0.00,Custom v0.1,2013-02-01 03:50:00,
2013-01-31 21:55:00,10.0,0.6,30.42,NNW,347,0.0,0.0,65,0.00,,,0.00,Custom v0.1,2013-02-01 03:55:00,
2013-01-31 22:05:00,10.0,1.0,30.43,NNW,347,0.0,0.0,66,0.00,,,0.00,Custom v0.1,2013-02-01 04:05:00,
2013-01-31 22:15:00,9.9,1.5,30.43,NNW,347,0.0,0.0,68,0.00,,,0.00,Custom v0.1,2013-02-01 04:15:00,
2013-01-31 22:20:00,9.9,1.2,30.44,NNW,347,0.0,0.0,67,0.00,,,0.00,Custom v0.1,2013-02-01 04:20:00,
2013-01-31 22:25:00,10.0,0.6,30.44,NNW,347,4.0,5.0,65,0.00,,,0.00,Custom v0.1,2013-02-01 04:25:00,
2013-01-31 22:35:00,10.2,0.5,30.44,NNW,347,0.0,0.0,64,0.00,,,0.00,Custom v0.1,2013-02-01 04:35:00,
2013-01-31 22:40:00,10.0,0.6,30.44,NNW,347,0.0,0.0,65,0.00,,,0.00,Custom v0.1,2013-02-01 04:40:00,
2013-01-31 22:45:00,10.0,0.3,30.44,NNW,347,0.0,0.0,64,0.00,,,0.00,Custom v0.1,2013-02-01 04:45:00,
2013-01-31 22:50:00,10.0,0.0,30.45,NNW,347,0.0,0.0,63,0.00,,,0.00,Custom v0.1,2013-02-01 04:50:00,
2013-01-31 22:55:00,10.0,0.3,30.45,NNW,347,0.0,0.0,64,0.00,,,0.00,Custom v0.1,2013-02-01 04:55:00,
2013-01-31 23:05:00,10.0,0.0,30.45,NNW,347,0.0,0.0,63,0.00,,,0.00,Custom v0.1,2013-02-01 05:05:00,
2013-01-31 23:10:00,10.0,0.0,30.45,NNW,347,0.0,0.0,63,0.00,,,0.00,Custom v0.1,2013-02-01 05:10:00,
2013-01-31 23:15:00,9.9,-0.1,30.45,NNW,347,0.0,0.0,63,0.00,,,0.00,Custom v0.1,2013-02-01 05:15:00,
2013-01-31 23:20:00,9.9,0.2,30.44,NNW,347,0.0,0.0,64,0.00,,,0.00,Custom v0.1,2013-02-01 05:20:00,
2013-01-31 23:25:00,9.9,0.2,30.44,NNW,347,0.0,0.0,64,0.00,,,0.00,Custom v0.1,2013-02-01 05:25:00,
2013-01-31 23:30:00,9.7,-0.3,30.44,NNW,347,0.0,0.0,63,0.00,,,0.00,Custom v0.1,2013-02-01 05:30:00,
2013-01-31 23:40:00,9.3,-0.4,30.44,NNW,347,0.0,0.0,64,0.00,,,0.00,Custom v0.1,2013-02-01 05:40:00,
2013-01-31 23:50:00,9.0,-0.3,30.42,NNW,347,0.0,0.0,65,0.00,,,0.00,Custom v0.1,2013-02-01 05:50:00,
2013-01-31 23:55:00,9.2,-0.1,30.42,NNW,347,0.0,0.0,65,0.00,,,0.00,Custom v0.1,2013-02-01 05:55:00,